N1DWM Weather Reports


time (UTC)temp
C
wind
direction
speed
KPH
gust
KPH
rain 1hr
cm
rain 24hr
cm
rain mn
cm
humidity
%
barometer
mb
20260504231508 14 229 6.4 30.6 0.00 0.00 0.00 58 1010.2
20260504230017 15 198 11.3 30.6 0.00 0.00 0.00 55 1010.0
20260504223022 15 267 17.7 35.4 0.00 0.00 0.00 53 1010.0
20260504221523 16 223 20.9 37.0 0.00 0.00 0.00 52 1010.0
20260504220010 16 225 17.7 40.2 0.00 0.00 0.00 50 1010.1
20260504213042 17 295 6.4 29.0 0.00 0.00 0.00 46 1010.0
20260504211521 17 208 24.1 49.9 0.00 0.00 0.00 44 1009.9
20260504210023 17 269 8.0 40.2 0.00 0.00 0.00 43 1009.9
20260504203020 18 360 12.9 43.5 0.00 0.00 0.00 43 1009.9
20260504201526 18 360 12.9 40.2 0.00 0.00 0.00 43 1009.9
20260504200027 18 254 9.7 29.0 0.00 0.00 0.00 41 1009.9
20260504193016 18 232 11.3 32.2 0.00 0.00 0.00 40 1010.0
20260504191521 18 202 17.7 35.4 0.00 0.00 0.00 38 1010.0
20260504190027 19 269 8.0 40.2 0.00 0.00 0.00 35 1009.9
20260504184528 19 225 22.5 43.5 0.00 0.00 0.00 34 1010.1
20260504183019 20 242 16.1 45.1 0.00 0.00 0.00 33 1010.1
20260504181518 20 211 22.5 40.2 0.00 0.00 0.00 32 1010.3
20260504174524 20 265 16.1 38.6 0.00 0.00 0.00 32 1010.7
20260504173035 20 313 8.0 37.0 0.00 0.00 0.00 32 1010.8
20260504171522 19 360 19.3 41.8 0.00 0.00 0.00 31 1010.9
20260504081521 2 320 0.0 0.0 0.00 0.00 0.00 80 1012.0
20260504050018 1 320 0.0 0.0 0.00 0.00 0.00 80 1011.9
20260504044510 1 320 0.0 0.0 0.00 0.00 0.00 79 1012.0
20260504043007 1 320 0.0 0.0 0.00 0.00 0.00 80 1012.0
20260504040025 1 320 0.0 0.0 0.00 0.00 0.00 75 1011.8
20260504034520 2 320 0.0 0.0 0.00 0.00 0.00 74 1011.8
20260504033004 2 319 0.0 0.0 0.00 0.00 0.00 74 1011.8
20260504031524 2 320 0.0 0.0 0.00 0.00 0.00 73 1011.8
20260504030013 2 320 0.0 0.0 0.00 0.00 0.00 71 1011.7
20260504024521 3 320 0.0 0.0 0.00 0.00 0.00 68 1011.6
20260504023022 3 320 0.0 0.0 0.00 0.00 0.00 66 1011.5
20260504021506 4 319 0.0 0.0 0.00 0.00 0.00 66 1011.4
20260504020013 4 319 0.0 0.0 0.00 0.00 0.00 64 1011.4
20260504014516 5 320 0.0 0.0 0.00 0.00 0.00 63 1011.3
20260504013027 5 320 0.0 0.0 0.00 0.00 0.00 61 1011.3
20260504011522 5 320 0.0 0.0 0.00 0.00 0.00 60 1011.1
20260504010009 5 320 0.0 0.0 0.00 0.00 0.00 55 1010.8
20260504004515 6 320 0.0 0.0 0.00 0.00 0.00 53 1010.5
20260504003015 7 320 0.0 0.0 0.00 0.00 0.00 52 1010.3
20260504001521 7 320 0.0 0.0 0.00 0.00 0.00 44 1010.1
20260504000028 8 320 0.0 0.0 0.00 0.00 0.00 42 1010.0
20260503234508 10 320 0.0 0.0 0.00 0.00 0.00 39 1009.9
20260503233012 10 320 0.0 0.0 0.00 0.00 0.00 37 1009.8